Harrison, AR

11:12 PM CDT on June 22, 2017 (GMT -0500)
Boone County

Weather History for KHRO - August, 2012

Change the Weather History Date:

Sunday, August 12, 2012

  Actual Average Record
Temperature  
Mean Temperature 77 °F 78 °F  
Max Temperature 91 °F 90 °F 107 °F (1934)
Min Temperature 62 °F 67 °F 46 °F (1967)
Degree Days  
Heating Degree Days 0 0  
Month to date heating degree days 0 0  
Since 1 June heating degree days 5 6  
Since 1 July heating degree days 0 0  
Cooling Degree Days 12 14  
Month to date cooling degree days 210 168  
Year to date cooling degree days 1518 986  
Since 1 June cooling degree days 1191 847  
Growing Degree Days 27 (Base 50)    
Moisture  
Dew Point 57 °F    
Average Humidity 53    
Maximum Humidity 72    
Minimum Humidity 34    
Precipitation  
Precipitation 0.00 in 0.11 in 2.51 in (1961)
Month to date precipitation 1.61 1.50  
Year to date precipitation 19.27 26.88  
Snow  
Snow 0.00 in 0.00 in - ()
Month to date snowfall 0.0 0.0  
Since 1 June snowfall 0.0 0.0  
Since 1 July snowfall 0.0 0.0  
Snow Depth 0.00 in    
Sea Level Pressure  
Sea Level Pressure 29.95 in    
Wind  
Wind Speed 8 mph (SE)    
Max Wind Speed 15 mph    
Max Gust Speed 20 mph    
Visibility 10 miles    
Events      
T = Trace of Precipitation, MM = Missing Value Source: NWS Daily Summary

Daily Weather History Graph

Daily Weather History Graph

Search for Another Location

Airport or City:

Trip Planner

Search our weather history database for the weather conditions in past years. The results will help you decide how hot, cold, wet, or windy it might be!

Date:

Astronomy

Aug. 12, 2012 Rise Set
Actual Time 6:28 AM CDT 8:05 PM CDT
Civil Twilight 6:01 AM CDT 8:33 PM CDT
Nautical Twilight 5:27 AM CDT 9:06 PM CDT
Astronomical Twilight 4:52 AM CDT 9:41 PM CDT
Moon 1:45 AM CDT (8/12) 4:27 PM CDT (8/12)
Length of Visible Light 14h 32m
Length of Day
13h 37m
Waning Crescent, 24% of the Moon is Illuminated
Aug 12
Waning Crescent
Aug 17
New
Aug 24
First Quarter
Aug 31
Full
Sep 8
Last Quarter

Hourly Weather History & Observations

Time (CDT) Temp. Heat Index Dew Point Humidity Pressure Visibility Wind Dir Wind Speed Gust Speed Precip Events Conditions
12:53 AM 63.0 °F - 54.0 °F 72% 29.98 in 10.0 mi SE 5.8 mph - N/A   Clear
1:53 AM 64.0 °F - 53.1 °F 67% 29.98 in 10.0 mi SE 6.9 mph - N/A   Clear
2:53 AM 63.0 °F - 52.0 °F 67% 29.98 in 10.0 mi SE 4.6 mph - N/A   Clear
3:53 AM 64.0 °F - 53.1 °F 67% 29.97 in 10.0 mi SE 5.8 mph - N/A   Clear
4:53 AM 66.0 °F - 53.1 °F 63% 29.97 in 10.0 mi SE 6.9 mph - N/A   Partly Cloudy
5:53 AM 66.0 °F - 54.0 °F 65% 30.00 in 10.0 mi ESE 6.9 mph - N/A   Clear
6:53 AM 66.9 °F - 54.0 °F 63% 30.00 in 10.0 mi SE 6.9 mph - N/A   Clear
7:53 AM 69.1 °F - 55.0 °F 61% 30.02 in 10.0 mi SE 10.4 mph - N/A   Mostly Cloudy
8:53 AM 72.0 °F - 55.9 °F 57% 30.01 in 10.0 mi SE 6.9 mph - N/A   Overcast
9:53 AM 75.0 °F - 57.0 °F 53% 30.00 in 10.0 mi ESE 9.2 mph - N/A   Scattered Clouds
10:53 AM 80.1 °F 80.2 °F 55.9 °F 43% 29.99 in - South 9.2 mph - N/A   Clear
11:53 AM 82.0 °F 81.7 °F 57.0 °F 42% 29.98 in 10.0 mi SE 5.8 mph - N/A   Partly Cloudy
12:53 PM 84.0 °F 83.5 °F 57.9 °F 41% 29.96 in 10.0 mi SSW 8.1 mph - N/A   Mostly Cloudy
1:53 PM 86.0 °F 85.4 °F 59.0 °F 40% 29.95 in 10.0 mi SE 9.2 mph - N/A   Clear
2:53 PM 87.1 °F 86.7 °F 60.1 °F 40% 29.93 in 10.0 mi SE 12.7 mph - N/A   Partly Cloudy
3:53 PM 87.1 °F 86.7 °F 60.1 °F 40% 29.91 in 10.0 mi SSE 10.4 mph - N/A   Scattered Clouds
4:53 PM 91.0 °F 90.2 °F 59.0 °F 34% 29.89 in 10.0 mi South 10.4 mph - N/A   Mostly Cloudy
5:53 PM 88.0 °F 86.7 °F 57.0 °F 35% 29.88 in 10.0 mi SSW 9.2 mph 17.3 mph N/A   Clear
6:53 PM 87.1 °F 86.5 °F 59.0 °F 39% 29.87 in 10.0 mi SSE 5.8 mph - N/A   Partly Cloudy
7:53 PM 84.0 °F 83.8 °F 59.0 °F 43% 29.88 in 10.0 mi ESE 4.6 mph - N/A   Mostly Cloudy
8:53 PM 80.1 °F 81.1 °F 61.0 °F 52% 29.88 in 10.0 mi SE 5.8 mph - N/A   Clear
9:53 PM 79.0 °F - 62.1 °F 56% 29.91 in 10.0 mi South 3.5 mph - N/A   Overcast
10:53 PM 78.1 °F - 62.1 °F 58% 29.89 in 10.0 mi SE 6.9 mph - N/A   Overcast
11:53 PM 77.0 °F - 63.0 °F 62% 29.88 in 10.0 mi ESE 8.1 mph - N/A   Clear